Weather History for Gallup, NM

Change the Weather History Date:

Thursday, October 11, 2012

  Actual Average Record
Temperature  
Mean Temperature 54 °F -  
Max Temperature 75 °F 68 °F 82 °F (1991)
Min Temperature 34 °F 30 °F 17 °F (2001)
Degree Days  
Heating Degree Days 12    
Growing Degree Days 4 (Base 50)    
Moisture  
Dew Point 27 °F    
Average Humidity 44    
Maximum Humidity 72    
Minimum Humidity 18    
Precipitation  
Precipitation 0.01 in - - ()
Sea Level Pressure  
Sea Level Pressure 29.90 in    
Wind  
Wind Speed 3 mph (ESE)    
Max Wind Speed 14 mph    
Max Gust Speed 22 mph    
Visibility 10 miles    
Events Rain    
Averages and records for this station are not official NWS values.
T = Trace of Precipitation, MM = Missing Value Source: NWS Daily Summary

Daily Weather History Graph

Daily Weather History Graph

Search for Another Location

Airport:

Trip Planner

Search our weather history database for the weather conditions in past years. The results will help you decide how hot, cold, wet, or windy it might be!

Date:

Astronomy

Oct. 11, 2012 Rise Set
Actual Time 7:18 AM MDT 6:44 PM MDT
Civil Twilight 6:53 AM MDT 7:09 PM MDT
Nautical Twilight 6:23 AM MDT 7:39 PM MDT
Astronomical Twilight 5:53 AM MDT 8:08 PM MDT
Moon 3:08 AM MDT (10/11) 4:15 PM MDT (10/11)
Length of Visible Light 12h 16m
Length of Day
11h 25m
Waning Crescent, 18% of the Moon is Illuminated
Oct 11
Waning Crescent
Oct 15
New
Oct 21
First Quarter
Oct 29
Full
Nov 6
Last Quarter

Hourly Weather History & Observations

Time (MDT) Temp. Windchill Dew Point Humidity Pressure Visibility Wind Dir Wind Speed Gust Speed Precip Events Conditions
12:53 AM 43.0 °F 41.3 °F 17.1 °F 35% 29.86 in 10.0 mi ENE 3.5 mph - N/A   Clear
1:53 AM 41.0 °F - 19.0 °F 41% 29.85 in 10.0 mi Calm Calm - N/A   Clear
2:53 AM 37.9 °F - 17.1 °F 43% 29.85 in 10.0 mi Calm Calm - N/A   Clear
3:53 AM 39.0 °F - 21.0 °F 49% 29.84 in 10.0 mi Calm Calm - N/A   Clear
4:53 AM 36.0 °F - 19.9 °F 52% 29.87 in 10.0 mi Calm Calm - N/A   Clear
5:53 AM 34.0 °F - 17.1 °F 50% 29.91 in 10.0 mi Calm Calm - N/A   Clear
6:53 AM 34.0 °F - 19.0 °F 54% 29.97 in 10.0 mi Calm Calm - N/A   Clear
7:53 AM 37.0 °F - 19.9 °F 50% 29.98 in 10.0 mi Calm Calm - N/A   Clear
8:53 AM 46.9 °F - 24.1 °F 41% 29.99 in 10.0 mi Calm Calm - N/A   Clear
9:53 AM 55.9 °F - 27.0 °F 33% 29.96 in 10.0 mi ENE 3.5 mph - N/A   Clear
10:53 AM 64.9 °F - 28.9 °F 26% 29.90 in 10.0 mi ESE 4.6 mph - N/A   Clear
11:53 AM 69.1 °F - 28.9 °F 22% 29.86 in 10.0 mi Variable 3.5 mph 21.9 mph N/A   Mostly Cloudy
12:53 PM 69.1 °F - 23.0 °F 18% 29.88 in 10.0 mi SW 13.8 mph - N/A   Overcast
1:53 PM 71.1 °F - 27.0 °F 19% 29.84 in 10.0 mi SW 11.5 mph - 0.00 in   Mostly Cloudy
2:53 PM 73.9 °F - 33.1 °F 22% 29.82 in 10.0 mi SW 11.5 mph 19.6 mph N/A   Scattered Clouds
5:53 PM 60.1 °F - 48.0 °F 64% 29.99 in 10.0 mi South 3.5 mph - 0.00 in Rain Light Rain
7:53 PM 55.0 °F - 44.1 °F 67% 29.99 in 10.0 mi East 5.8 mph - N/A   Overcast
8:53 PM 54.0 °F - 45.0 °F 72% 29.93 in 10.0 mi ENE 5.8 mph - N/A   Overcast
10:53 PM 52.0 °F - 42.1 °F 69% 29.82 in 10.0 mi NE 4.6 mph - N/A   Partly Cloudy